Terminal Aerodrome Forecast
Issued by NWS

Home | Current Version | Previous Version | Graphics & Text | Print | Product List | Glossary On
Versions: 1 2 3 4 5 6 7 8 9 10 11 12 13 14 15 16 17 18 19 20 21 22 23 24 25 26 27 28 29 30 31 32 33 34 35 36 37 38 39 40 41 42 43 44 45 46 47 48 49 50
000
FTUS43 KLOT 251955 AAA
TAFGYY
TAF AMD
KGYY 251955Z 2520/2618 27015G25KT P6SM OVC013
     FM260000 26012KT P6SM OVC020
     FM260300 29010KT P6SM VCSH BKN035 BKN060
     FM261000 32010KT P6SM SCT040 SCT100
     FM261500 33012G20KT P6SM SCT025 BKN200=

USA.gov is the U.S. government's official web portal to all federal, state and local government web resources and services.